Regional Weather Roundup
Issued by NWS

Home | Current Version | Previous Version | Text Only | Print | Product List | Glossary On
Versions: 1 2 3 4 5 6 7 8 9 10 11 12 13 14 15 16 17 18 19 20 21 22 23 24 25 26 27 28 29 30 31 32 33 34 35 36 37 38 39 40 41 42 43 44 45 46 47 48 49 50
000
ASUS43 KLSX 211007
RWRMO

WEATHER SUMMARY FOR MISSOURI
NATIONAL WEATHER SERVICE SPRINGFIELD MO
500 AM CDT SAT OCT 21 2017

NOTE: "FAIR" INDICATES FEW OR NO CLOUDS BELOW 12,000 FEET WITH NO
       SIGNIFICANT WEATHER AND/OR OBSTRUCTIONS TO VISIBILITY.
       CURRENT SKY AND/OR WEATHER CONDITIONS ARE NOT AVAILABLE FOR
       CHILLICOTHE AND FARMINGTON.

MOZ001>031-035>038-043-044-053-054-211100-
...NORTHERN AND WESTERN MISSOURI...

CITY           SKY/WX    TMP DP  RH WIND       PRES   REMARKS
KANSAS CTY INT CLOUDY    65  58  78 S23G31    29.80S
KANSAS C DTWN  CLOUDY    67  58  72 S15G26    29.82F
LEE`S SUMMIT   MOCLDY    64  57  78 S21G30    29.85S
ST JOSEPH      LGT RAIN  66  59  78 S21G30    29.77F
CHILLICOTHE      N/A     64  58  80 S10G17    29.86F
KIRKSVILLE     PTCLDY    62  57  83 S13       29.91S

$$
MOZ066>068-077>081-088>096-101>105-211100-
...SOUTHWEST MISSOURI...

CITY           SKY/WX    TMP DP  RH WIND       PRES   REMARKS
SPRINGFIELD    CLEAR     62  57  83 S18G25    29.95F
BRANSON        CLOUDY    64  57  77 SE7       30.01F

$$
MOZ032>034-039>042-045>050-055>058-069>072-211100-
...CENTRAL MISSOURI...

CITY           SKY/WX    TMP DP  RH WIND       PRES   REMARKS
COLUMBIA       MOCLDY    62  55  77 S13       29.95F
JEFFERSON CITY MOCLDY    64  53  67 SE8       29.96F
ROLLA          CLOUDY    64  54  69 S13       30.01S
SEDALIA        PTCLDY    65  57  75 S16G24    29.91F
WHITEMAN AFB   CLEAR     63  56  79 S16G23    29.85S
WARRENSBURG    MOCLDY    63  55  77 SE10G17   29.88S
OSAGE BEACH    MOCLDY    64  55  72 S8        29.97F

$$
MOZ051-052-059>065-211100-
...EAST CENTRAL MISSOURI...

CITY           SKY/WX    TMP DP  RH WIND       PRES   REMARKS
ST LOUIS INTL  MOCLDY    63  53  70 SE10      30.04F
SPIRIT OF STL  CLOUDY    64  54  69 CALM      30.02S
ST CHARLES     MOCLDY    61  53  75 E10       30.03S

$$
MOZ072>076-082>087-097>100-106>115-211100-
...SOUTH CENTRAL AND SOUTHEAST MISSOURI...

CITY           SKY/WX    TMP DP  RH WIND       PRES   REMARKS
CAPE GIRARDEAU CLOUDY    59  50  72 S9        30.09R
FARMINGTON     CLOUDY    63  54  72 S10       30.06F
POPLAR BLUFF   CLOUDY    59  54  83 SE3       30.08R
WEST PLAINS    LGT RAIN  61  56  83 S7        30.07R

$$



USA.gov is the U.S. government's official web portal to all federal, state and local government web resources and services.